Wind_Speed
5 5 5 4 3 3 3 3 3 2 2 2 3 3 3 3 3 3 4 4 4 4 5 4 5 5 5 5 5 5 5 5 5 5 6 6 6 6 6 6 6 5 6
5 4 4 3 3 3 3 3 3 2 2 2 2 3 3 3 4 4 4 4 5 5 5 4 5 6 6 5 5 5 6 6 6 5 6 6 6 6 6 7 7 7 7
4 4 2 2 2 2 2 2 2 2 2 2 2 3 3 4 4 4 4 4 5 5 5 5 5 5 6 6 6 6 6 7 7 6 7 7 7 7 6 7 8 8 8
4 3 2 2 2 2 2 2 2 2 2 2 2 3 3 4 4 4 4 4 4 4 4 5 5 5 5 6 6 6 7 7 8 8 9 9 9 8 8 8 9 9 9
4 4 3 2 2 1 1 1 2 2 2 2 3 3 4 4 4 4 4 4 4 4 5 5 5 6 5 5 5 6 7 8 8 9 9 10 10 9 10 10 10 10 10
5 4 3 2 2 0 1 1 2 2 2 2 3 4 4 4 4 4 4 4 5 5 6 6 6 6 6 6 6 7 7 8 9 9 10 10 11 11 11 11 11 12 12
6 4 3 2 2 1 1 1 2 2 2 3 4 4 4 4 4 5 5 5 6 6 6 6 6 7 6 6 7 7 8 9 9 9 10 11 12 12 12 11 12 12 13
6 5 4 3 3 2 1 2 2 2 2 3 3 3 4 5 5 5 6 6 6 7 7 7 6 6 7 7 7 7 9 9 10 10 11 11 12 12 12 12 12 13 14
6 6 5 4 3 3 2 3 3 2 2 2 2 2 3 4 5 6 6 7 7 8 8 8 8 7 8 8 8 8 9 9 10 11 11 12 13 13 13 13 14 14 14
6 6 5 4 4 4 3 3 4 4 3 2 2 2 3 3 4 5 6 7 8 8 8 8 8 9 10 10 9 10 10 10 10 11 12 13 14 14 14 14 14 14 14
6 6 6 6 5 4 4 4 4 4 3 2 2 2 3 4 5 5 6 7 7 8 8 8 8 9 10 10 10 10 10 11 12 12 13 13 14 14 14 13 14 14 14
6 6 6 5 5 5 5 5 5 5 4 3 3 4 4 4 5 6 6 6 7 7 8 9 9 9 10 11 12 12 13 13 14 13 13 12 12 13 14 14 13 14 15
6 6 6 6 5 5 5 5 6 6 6 6 5 5 6 6 6 7 7 7 7 8 9 10 10 10 11 12 13 14 14 14 14 13 13 14 13 13 13 14 14 14 15
7 6 7 6 6 6 6 6 6 6 7 7 7 7 6 6 7 7 7 7 8 8 9 9 10 12 13 13 13 13 13 14 14 13 14 13 13 13 14 14 15 15 16
7 7 7 7 7 7 7 7 7 7 7 7 8 7 7 8 8 8 8 8 8 9 10 11 12 13 13 13 13 13 13 13 13 13 14 14 14 14 15 15 16 16 17
9 7 7 7 7 8 8 8 8 8 8 8 9 9 8 9 9 10 10 10 10 11 12 12 13 13 13 13 13 13 14 14 14 14 14 15 15 15 15 16 16 17 18
9 9 8 8 8 8 9 9 9 9 9 10 10 9 10 10 10 10 11 11 11 12 12 13 13 13 13 14 14 14 14 15 15 15 15 16 16 16 16 17 18 18 19
9 10 9 9 9 9 10 10 10 10 10 11 11 11 11 11 11 11 11 11 12 13 13 13 14 14 14 15 16 15 15 15 15 16 16 16 16 17 18 18 19 19 19
10 10 10 11 11 11 11 11 11 12 12 13 13 13 12 12 13 12 13 13 14 14 13 13 14 14 15 16 16 16 16 16 16 16 16 17 17 18 18 19 20 20 21
11 11 11 12 12 12 11 12 12 12 13 14 14 14 14 13 13 13 14 15 15 15 15 15 15 16 16 17 17 17 16 16 16 17 18 18 18 19 19 19 20 21 22
12 12 13 13 13 13 13 13 13 14 14 14 15 15 15 15 15 15 15 16 16 15 15 16 17 17 17 18 18 17 17 17 17 19 19 19 19 20 21 21 21 22 23
14 14 14 14 15 14 15 15 14 14 15 16 16 16 16 16 16 17 17 16 16 16 16 17 18 18 19 19 19 18 18 18 19 19 19 20 20 20 21 21 22 23 24
15 15 16 16 16 16 16 16 16 16 16 17 17 17 17 18 18 18 18 18 17 17 18 18 18 19 19 19 19 19 19 19 19 20 20 21 21 21 22 22 23 24 24
17 17 17 17 17 17 18 18 17 17 18 19 19 20 19 19 19 19 19 19 19 19 19 19 19 19 19 19 19 19 19 19 20 21 21 22 22 22 23 24 24 25 26
18 19 19 19 19 19 19 19 19 19 19 20 21 21 21 21 21 20 20 20 20 20 20 20 20 20 20 19 19 19 19 20 21 22 22 23 23 24 24 24 25 26 27
20 20 20 19 19 19 20 20 21 20 21 21 21 22 22 21 21 21 21 21 21 20 21 21 21 21 20 20 20 20 21 21 22 23 24 24 25 25 25 25 25 26 27
Wind_Direction
115 113 119 132 142 158 171 169 170 176 187 203 207 212 225 239 230 228 219 217 222 222 222 225 224 223 226 229 235 231 228 229 234 239 233 235 228 224 233 235 235 238 244
110 111 109 115 151 165 168 168 169 181 209 221 223 221 225 232 231 228 229 231 229 230 231 233 231 229 231 234 234 232 227 229 238 244 240 239 231 229 233 238 244 243 247
90 101 119 131 148 157 163 181 194 202 209 229 235 227 222 225 225 221 225 233 235 234 234 233 233 233 235 239 237 235 232 236 240 242 242 237 235 240 248 247 246 249 248
72 79 99 110 114 150 179 197 222 229 231 233 244 238 230 224 225 225 225 232 233 233 232 232 234 235 240 240 239 236 238 243 244 243 243 242 247 247 252 256 253 255 253
61 63 64 70 79 134 204 243 242 265 272 256 250 246 240 232 229 233 224 221 228 232 232 239 243 245 242 239 239 239 243 249 249 247 244 246 252 252 254 259 257 257 256
59 51 58 49 43 17 311 297 261 272 282 267 269 267 255 241 232 226 219 223 233 240 240 242 246 248 246 243 244 247 249 251 253 252 250 251 254 257 257 261 260 257 258
50 48 58 52 28 16 6 317 278 266 279 278 278 272 253 243 232 230 229 232 235 244 245 242 248 248 249 244 245 248 254 254 257 257 259 258 256 258 258 263 261 261 261
41 40 45 43 33 26 18 350 321 310 304 281 270 252 238 240 245 245 239 238 242 248 249 249 254 248 249 247 252 255 255 253 258 259 260 258 256 259 260 265 261 261 261
38 33 30 28 32 32 20 7 352 341 345 321 285 263 251 243 249 253 248 246 247 247 251 250 250 251 253 252 255 256 256 261 263 263 263 259 258 259 263 265 262 262 262
25 28 23 23 28 20 12 3 2 352 343 349 321 284 268 258 259 256 260 260 255 252 254 250 250 249 251 250 254 257 255 263 263 267 267 262 260 263 265 264 262 260 261
16 20 17 20 20 14 13 8 3 1 352 341 331 309 284 269 264 262 264 266 265 257 253 254 257 256 253 249 255 259 260 265 267 268 267 266 265 266 267 267 262 260 262
6 6 3 6 8 6 1 0 357 356 343 324 311 305 300 295 281 275 271 267 265 264 259 259 261 260 258 257 260 263 264 263 265 265 266 268 268 265 268 267 264 262 264
3 359 356 359 1 359 352 344 342 342 340 325 310 305 303 298 293 285 281 278 273 271 266 265 263 264 268 267 263 262 262 262 262 264 268 269 268 269 268 264 264 264 266
360 356 352 355 351 347 346 340 332 332 331 328 314 303 303 303 299 292 283 282 278 278 277 272 269 270 273 272 267 267 268 267 262 267 271 269 268 268 266 266 266 267 269
355 349 345 347 345 341 339 335 328 324 325 327 323 313 306 302 295 292 289 287 285 278 277 278 276 275 276 274 270 270 272 272 270 272 272 270 271 270 269 270 270 271 273
351 342 339 337 333 331 331 328 324 322 323 324 322 317 312 308 299 292 289 290 290 285 280 277 275 276 280 281 274 268 273 275 275 272 271 270 270 269 271 272 272 273 274
343 344 335 331 325 322 319 317 316 315 315 318 319 317 311 308 306 301 296 291 291 290 285 280 274 276 279 280 281 279 277 278 275 271 273 273 270 271 271 272 273 273 275
330 333 336 330 320 315 313 311 310 309 309 311 312 312 310 308 305 298 297 294 294 295 287 283 281 280 278 279 282 282 280 277 277 274 274 273 273 274 273 274 275 275 277
319 320 323 325 321 315 311 307 307 307 306 306 306 306 305 305 304 301 298 297 296 295 295 289 284 284 284 283 281 281 281 278 276 276 275 276 277 278 277 276 277 276 276
313 313 313 315 315 314 312 306 305 305 304 303 303 303 301 304 303 301 299 297 295 294 293 288 287 288 287 287 283 284 281 277 274 277 276 277 279 279 279 279 279 278 279
303 305 306 309 310 309 306 304 303 302 301 301 300 300 299 300 302 299 297 298 296 292 290 289 289 290 290 287 284 284 284 280 277 278 279 278 279 279 278 278 278 279 280
296 298 299 301 303 303 303 303 302 300 299 299 298 297 297 296 297 297 297 298 299 297 293 292 292 292 292 287 286 287 284 283 280 280 281 281 281 280 279 279 279 280 281
290 291 294 296 297 297 298 298 299 297 297 298 298 295 292 292 293 294 296 295 295 296 295 294 294 294 292 289 288 287 284 282 282 281 282 283 283 283 283 284 284 283 282
288 290 292 292 290 291 292 295 295 295 294 294 294 294 293 292 293 293 293 294 295 297 296 294 293 293 293 292 290 287 285 284 282 282 283 284 284 284 284 285 286 286 286
290 290 292 291 289 290 290 291 293 293 294 294 294 294 293 292 292 293 294 293 293 294 295 293 291 291 292 291 289 287 287 286 285 285 285 285 285 285 285 285 286 288 288
290 289 290 290 290 289 289 290 290 292 294 294 294 295 295 294 292 292 292 292 292 293 293 293 293 292 292 290 289 289 289 288 288 286 286 286 286 287 289 289 290 291 290
Height
5888 5889 5889 5889 5889 5889 5889 5889 5889 5890 5890 5890 5889 5889 5889 5888 5888 5889 5889 5889 5889 5890 5890 5890 5890 5890 5890 5891 5890 5890 5890 5891 5891 5891 5891 5891 5891 5892 5892 5892 5892 5892 5893
5889 5889 5889 5889 5889 5889 5889 5889 5889 5889 5889 5889 5889 5888 5888 5887 5887 5887 5888 5888 5888 5889 5889 5889 5889 5889 5889 5889 5889 5889 5890 5890 5890 5890 5890 5890 5890 5891 5891 5891 5891 5891 5891
5890 5889 5889 5889 5889 5889 5889 5889 5889 5889 5888 5888 5888 5887 5887 5887 5886 5886 5887 5887 5887 5888 5888 5888 5888 5888 5888 5888 5888 5888 5888 5889 5889 5889 5889 5889 5889 5889 5890 5890 5890 5890 5890
5891 5890 5890 5889 5889 5888 5889 5888 5888 5888 5888 5887 5886 5886 5886 5886 5886 5885 5886 5886 5886 5886 5887 5887 5887 5887 5887 5887 5887 5887 5887 5887 5887 5888 5888 5888 5888 5888 5888 5888 5888 5888 5888
5891 5890 5890 5889 5888 5888 5888 5888 5887 5887 5886 5886 5885 5885 5885 5885 5884 5884 5884 5885 5885 5885 5885 5886 5885 5885 5885 5885 5885 5885 5885 5885 5886 5886 5886 5886 5886 5886 5886 5886 5886 5886 5886
5891 5890 5890 5889 5888 5888 5887 5887 5886 5886 5886 5885 5884 5884 5884 5884 5883 5883 5883 5883 5884 5884 5884 5884 5884 5884 5884 5884 5884 5884 5884 5884 5884 5884 5884 5884 5884 5884 5884 5884 5884 5884 5884
5891 5890 5889 5888 5888 5887 5886 5886 5886 5885 5885 5884 5883 5883 5883 5883 5882 5882 5882 5882 5882 5882 5882 5882 5882 5882 5882 5882 5882 5882 5882 5882 5882 5882 5882 5882 5882 5881 5882 5881 5881 5881 5881
5892 5890 5889 5888 5887 5886 5886 5885 5885 5884 5883 5883 5882 5882 5882 5882 5881 5881 5881 5881 5881 5881 5881 5881 5881 5881 5881 5881 5880 5880 5880 5880 5880 5880 5880 5879 5879 5879 5879 5879 5879 5878 5878
5892 5890 5889 5888 5887 5886 5885 5885 5884 5883 5882 5881 5881 5881 5881 5881 5881 5880 5880 5880 5879 5879 5879 5879 5879 5879 5879 5878 5878 5878 5878 5878 5878 5877 5877 5876 5876 5876 5876 5875 5875 5875 5875
5892 5891 5890 5888 5887 5886 5885 5884 5884 5883 5882 5881 5880 5880 5880 5879 5879 5879 5879 5878 5877 5877 5877 5876 5877 5877 5876 5876 5876 5875 5875 5875 5875 5875 5874 5873 5873 5873 5872 5872 5872 5871 5871
5893 5891 5890 5889 5887 5886 5885 5884 5883 5882 5881 5880 5880 5879 5879 5878 5878 5878 5877 5877 5876 5875 5875 5875 5874 5874 5873 5873 5873 5873 5872 5872 5872 5871 5871 5870 5870 5869 5869 5868 5868 5868 5868
5892 5891 5890 5888 5887 5886 5885 5884 5883 5882 5881 5880 5879 5878 5878 5877 5876 5876 5875 5875 5874 5874 5873 5873 5872 5872 5871 5871 5871 5870 5870 5869 5869 5868 5868 5867 5867 5866 5866 5865 5865 5864 5864
5892 5891 5889 5888 5887 5886 5884 5883 5882 5881 5880 5879 5878 5877 5876 5875 5875 5874 5873 5872 5871 5871 5871 5870 5870 5869 5868 5868 5867 5867 5866 5866 5866 5865 5865 5864 5863 5863 5862 5862 5861 5861 5860
5891 5890 5889 5887 5886 5885 5884 5883 5881 5880 5879 5878 5876 5875 5874 5874 5873 5872 5871 5870 5869 5869 5868 5867 5867 5866 5865 5865 5864 5864 5863 5862 5862 5862 5861 5860 5859 5859 5858 5858 5857 5857 5856
5891 5890 5888 5887 5886 5884 5883 5882 5880 5879 5878 5876 5875 5874 5872 5872 5871 5869 5869 5868 5867 5866 5865 5864 5864 5863 5862 5861 5861 5860 5859 5859 5858 5857 5857 5856 5856 5855 5855 5854 5853 5853 5852
5891 5889 5888 5886 5885 5883 5882 5881 5879 5878 5876 5875 5874 5872 5871 5869 5868 5867 5866 5865 5864 5863 5862 5861 5860 5859 5859 5858 5857 5856 5856 5855 5854 5853 5853 5852 5852 5851 5850 5850 5849 5848 5848
5890 5888 5887 5885 5883 5882 5881 5879 5878 5876 5875 5873 5872 5870 5869 5868 5866 5864 5863 5862 5861 5860 5859 5858 5857 5856 5855 5854 5854 5853 5852 5851 5850 5849 5849 5848 5847 5846 5846 5845 5844 5843 5842
5888 5887 5885 5883 5882 5880 5879 5877 5876 5875 5873 5872 5870 5868 5867 5865 5864 5862 5861 5859 5858 5856 5855 5854 5853 5852 5851 5850 5849 5848 5847 5846 5846 5845 5844 5843 5842 5842 5841 5840 5839 5838 5837
5886 5885 5883 5881 5880 5878 5876 5875 5873 5872 5871 5869 5868 5866 5864 5862 5861 5859 5858 5856 5855 5853 5852 5851 5850 5848 5847 5846 5845 5844 5843 5842 5841 5840 5839 5838 5837 5836 5835 5834 5833 5832 5831
5884 5882 5881 5879 5877 5876 5874 5872 5871 5870 5868 5866 5865 5863 5861 5859 5858 5856 5854 5853 5851 5850 5848 5847 5846 5844 5843 5842 5840 5839 5838 5837 5836 5835 5834 5833 5832 5830 5829 5828 5827 5826 5825
5881 5880 5878 5876 5875 5873 5871 5870 5868 5866 5865 5863 5861 5859 5857 5856 5854 5852 5851 5849 5847 5846 5844 5843 5842 5840 5839 5837 5836 5834 5833 5832 5831 5830 5828 5827 5826 5825 5823 5822 5820 5819 5818
5877 5876 5875 5873 5871 5869 5868 5866 5864 5863 5861 5859 5857 5855 5853 5851 5850 5848 5846 5845 5843 5841 5840 5839 5837 5835 5834 5832 5831 5829 5828 5827 5825 5825 5823 5822 5820 5819 5817 5815 5814 5812 5811
5873 5872 5871 5869 5867 5866 5864 5862 5860 5858 5857 5855 5853 5851 5849 5847 5845 5843 5841 5840 5838 5837 5836 5834 5832 5830 5828 5827 5825 5824 5822 5821 5820 5818 5817 5816 5814 5812 5810 5809 5807 5805 5803
5869 5867 5866 5864 5863 5861 5859 5857 5855 5854 5852 5850 5848 5846 5844 5842 5840 5838 5837 5835 5833 5832 5830 5829 5827 5825 5823 5821 5820 5818 5817 5815 5814 5812 5811 5810 5808 5806 5804 5802 5800 5798 5796
5864 5862 5861 5859 5857 5856 5854 5852 5850 5849 5847 5845 5843 5841 5839 5837 5834 5832 5831 5830 5828 5826 5825 5823 5821 5819 5817 5815 5814 5812 5811 5810 5808 5806 5805 5803 5801 5799 5797 5795 5793 5790 5788
5858 5856 5855 5853 5851 5850 5848 5847 5845 5843 5842 5840 5837 5835 5834 5832 5829 5827 5826 5824 5823 5821 5819 5818 5816 5814 5812 5810 5808 5806 5805 5803 5801 5800 5798 5796 5794 5791 5789 5787 5785 5783 5780